Regional Weather Roundup
Issued by NWS Little Rock, AR

Home | Current Version | Previous Version | Text Only | Print | Product List | Glossary Off
Versions: 1 2 3 4 5 6 7 8 9 10 11 12 13 14 15 16 17 18 19 20 21 22 23 24 25 26 27 28 29 30 31 32 33 34 35 36 37 38 39 40 41 42 43 44 45 46 47 48 49 50

457
ASUS44 KLZK 210905
RWRLZK

WEATHER ROUNDUP FOR ARKANSAS
NATIONAL WEATHER SERVICE LITTLE ROCK AR
400 AM CDT MON AUG 21 2017

NOTE: "FAIR" INDICATES FEW OR NO CLOUDS BELOW 12,000 FEET WITH NO
SIGNIFICANT WEATHER AND/OR OBSTRUCTIONS TO VISIBILITY.

ARZ001-003-010-029-211000-
NORTHWEST ARKANSAS

CITY           SKY/WX    TMP DP  RH WIND       PRES   REMARKS
FAYETTEVILLE   CLEAR     69  69 100 CALM      30.09F
FORT SMITH     CLEAR     75  72  90 NE3       30.06F
HARRISON       CLEAR     74  73  97 CALM      30.10F
BENTONVILLE    CLEAR     75  68  78 S7        30.09S
ROGERS         PTCLDY    75  70  84 S7        30.09S
SILOAM SPGS    CLEAR     73  68  83 S8        30.08S
HIGHFILL       PTCLDY    73  70  90 S7        30.08F
$$

ARZ004-005-016-211000-
NORTH CENTRAL ARKANSAS

CITY           SKY/WX    TMP DP  RH WIND       PRES   REMARKS
BATESVILLE     CLEAR     73  72  94 CALM      30.08S
FLIPPIN        MOCLDY    72  66  83 NE3       30.05S VSB 1
MTN HOME       CLEAR     72  72 100 CALM      30.08S
$$

ARZ040-041-211000-
WEST CENTRAL ARKANSAS

CITY           SKY/WX    TMP DP  RH WIND       PRES   REMARKS
MENA           CLEAR     72  72 100 CALM      30.12S
MOUNT IDA      CLEAR     74  71  91 CALM      30.08S
$$

ARZ009-017-025-026-028-211000-
NORTHEAST ARKANSAS

CITY           SKY/WX    TMP DP  RH WIND       PRES   REMARKS
JONESBORO      CLEAR     75  75 100 CALM      30.06F
NEWPORT        PTCLDY    73  72  96 SW5       30.07F
WALNUT RIDGE   CLEAR     73  70  88 CALM      30.07S
BLYTHEVILLE    CLEAR     75  75 100 SE3       30.07F
$$

ARZ022-023-033-042-044-211000-
CENTRAL ARKANSAS

CITY           SKY/WX    TMP DP  RH WIND       PRES   REMARKS
LITTLE ROCK    PTCLDY    77  77 100 CALM      30.08S
N LITTLE ROCK    N/A     78  75  91 CALM      30.08S
JACKSONVILLE   PTCLDY    77  77 100 CALM      30.07F
CONWAY           N/A     75  75 100 CALM      30.06S FOG
SEARCY         CLEAR     74  74 100 CALM      30.08F
HOT SPRINGS    CLEAR     77  76  96 CALM      30.09F
RUSSELLVILLE   CLEAR     75  75 100 CALM      30.07F
CLINTON        CLOUDY    73  72  94 CALM      30.08F FOG
$$

ARZ036-211000-
EAST ARKANSAS

CITY           SKY/WX    TMP DP  RH WIND       PRES   REMARKS
WEST MEMPHIS   PTCLDY    75  74  96 S6        30.06F
$$

ARZ050-053-066-070-073-211000-
SOUTHWEST ARKANSAS

CITY           SKY/WX    TMP DP  RH WIND       PRES   REMARKS
ARKADELPHIA    FOG       73  73 100 CALM      30.09S VSB 1
CAMDEN         CLEAR     73  72  94 CALM      30.08S FOG
TEXARKANA      CLOUDY    73  73 100 E5        30.09R
EL DORADO      CLEAR     74  73  97 CALM      30.09S
DE QUEEN       CLEAR     73  73 100 CALM      30.07R FOG
$$

ARZ056-057-069-211000-
SOUTHEAST ARKANSAS

CITY           SKY/WX    TMP DP  RH WIND       PRES   REMARKS
PINE BLUFF     CLEAR     76  75  97 CALM      30.08S FOG
MONTICELLO     CLEAR     76  74  93 CALM      30.09S

$$






USA.gov is the U.S. government's official web portal to all federal, state and local government web resources and services.